Location: Saint-Palais-sur-Mer
(45.6429°N, 1.0859°W)
Time: 15:24:36
(UTC+01:00)

S-56A Canister/Altair - Pass Details

Date: 08 February 2026
Orbit: 633 x 2484 km, 38.9° (Epoch: 16 March)

Event Time Altitude Azimuth Distance (km) Brightness Sun altitude
Exits shadow 03:33:50 36° 114° (ESE) 2,690 10.2 -48.3°
Drops below altitude 10° 03:41:59 10° 87° (E) 4,733 12.0 -47.1°
Sets 03:46:22 0° 82° (E) 5,930 12.7 -46.5°
